Location: Ajisawe
(8.4333°N, 4.3833°E)
Time: 22:38:06
(UTC+00:00)

Vanguard 1 Rocket - Pass Details

Date: 28 April 2021
Orbit: 652 x 4224 km, 34.3° (Epoch: 10 May)

Event Time Altitude Azimuth Distance (km) Brightness Sun altitude
Rises 04:55:24 0° 218° (SW) 8,352 11.8 -8.6°
Reaches altitude 10° 05:02:02 10° 211° (SSW) 7,423 11.6 -7.0°
Maximum altitude 05:25:19 41° 148° (SSE) 4,596 11.2 -1.4°
Drops below altitude 10° 05:41:02 10° 83° (E) 5,256 13.6 2.3°
Sets 05:44:36 0° 76° (ENE) 5,847 15.2 3.2°
